Other Public Products
Issued by NWS Charleston, SC

Current Version | Previous Version | Graphics & Text | Print | Product List | Glossary On
Versions: 1 2 3 4 5 6 7 8 9 10 11 12 13 14 15 16 17 18 19 20 21 22 23 24 25 26 27 28 29 30 31 32 33 34 35 36 37 38 39 40 41 42 43 44 45 46 47 48 49 50
055 FPUS82 KCHS 202012 OPUCHS TEST...KCHS/KSAV Gateway Observations...TEST National Weather Service Charleston SC 300 PM EST MON NOV 20 2017 NOTE: "fair" indicates few or no clouds below 12,000 feet with no significant weather and/or obstructions to visibility. SCZ050-WAZ558-NCZ071-TXZ119-213-PAZ071-DCZ001-FLZ074-172-MI076- NYZ176-178-MAZ016-IL014-TNZ027-NJZ106-GAZ044-MD014-202100- ...Gateway Observations for Charleston International... CITY SKY/WX TMP DP RH WIND PRES REMARKS Chas Airport MOSUNNY 61 31 32 SE3 30.22F Seattle PTSUNNY 49 47 93 CALM 29.74R Charlotte MOSUNNY 58 25 28 CALM 30.21F Dallas DFW MOSUNNY 65 29 25 S17G25 30.02F Dallas Love MOSUNNY 64 29 26 S14G23 30.04F Philladelphia MOSUNNY 48 22 35 W18 30.12S Wash National MOSUNNY 52 21 29 W18 30.18S Baltimore MOSUNNY 50 22 33 SW9 30.16R Miami PTSUNNY 79 67 66 NE15G23 30.01F Detroit PTSUNNY 48 28 46 SW20 29.91F Newark MOSUNNY 48 22 35 W16G22 30.05R Laguardia MOSUNNY 48 22 35 W14G26 30.03R J F K MOSUNNY 47 23 38 W21G26 30.05R Boston Logan MOSUNNY 41 19 41 W20G28 29.91R Ft. Lauderdale CLOUDY 76 66 71 E14 30.01S Chicago O`Hare MOSUNNY 51 32 48 SW22 29.78F Chicago Midway MOSUNNY 53 32 44 SW18G26 29.80F Houston Bush MOSUNNY 67 44 43 SE10 30.12F Houston Hobby PTSUNNY 66 46 48 E9 30.12F Nashville CLOUDY 53 23 31 SE5 30.15F Atlanta CLOUDY 59 29 31 SE5 30.17F $$ GAZ044-118-TXZ119-213-NCZ071-DCZ001-MDZ014-506-PAZ021-071-NJZ106- NYZ176-178-MAZ106-OHZ011-021-055-MIZ076-KYZ091-ILZ014-INZ047- MNZ060-ONZ431-202100- ...Gateway Observations for Savannah International... CITY SKY/WX TMP DP RH WIND PRES REMARKS Savannah Arpt PTSUNNY 62 42 47 E9 30.21F Atlanta CLOUDY 59 29 31 SE5 30.17F Charlotte MOSUNNY 58 25 28 CALM 30.21F Dallas DFW MOSUNNY 65 29 25 S17G25 30.02F Houston Bush MOSUNNY 67 44 43 SE10 30.12F Wash National MOSUNNY 52 21 29 W18 30.18S Wash Dulles MOSUNNY 51 22 31 SW14 30.16F Baltimore MOSUNNY 50 22 33 SW9 30.16R Philadelphia MOSUNNY 48 22 35 W18 30.12S Newark MOSUNNY 48 22 35 W16G22 30.05R Laguardia MOSUNNY 48 22 35 W14G26 30.03R J F K MOSUNNY 47 23 38 W21G26 30.05R Boston MOSUNNY 41 19 41 W20G28 29.91R Pittsburg MOSUNNY 42 22 44 SW13 30.07F Akron MOSUNNY 43 25 49 SW16 30.04F Cleveland MOSUNNY 47 25 42 S18G28 30.01F Cincinnati PTSUNNY 47 27 45 S16 30.08F Columbus SUNNY 44 26 48 S15 30.09F Detroit PTSUNNY 48 28 46 SW20 29.91F Chicago O`Hare MOSUNNY 51 32 48 SW22 29.78F Minneapolis CLOUDY 45 30 55 S7 29.46F Indianapolis MOSUNNY 49 26 41 S14 30.02F Toronto Canada PTSUNNY 43 30 61 SW10G17 29.88F $$

USA.gov is the U.S. government's official web portal to all federal, state and local government web resources and services.